WZZ768 UKDD-UKLL

Flight info

Callsign WZZ768
Flight time 1h 16m
Altitude 38000
Route OSLAN L984 GORKU
Aircraft A320/M-SDE3FGHIRWY/LB1

Departure

Time 2026-05-06 23:03
Airport Dnipro International Airport (UKDD)

Arrival

Time 2026-05-07 00:20
Airport Lviv International Airport (UKLL)
Time Latitude Longitude Altitude Speed Heading
2026-05-06 22:46 48.36790 35.09579 470 ft 0 kts 36°
2026-05-06 22:58 48.36791 35.09579 470 ft 0 kts 36°
2026-05-06 22:58 48.36800 35.09594 467 ft 4 kts 51°
2026-05-06 22:58 48.36794 35.09651 471 ft 8 kts 129°
2026-05-06 22:58 48.36748 35.09729 468 ft 13 kts 116°
2026-05-06 22:59 48.36708 35.09873 471 ft 17 kts 113°
2026-05-06 22:59 48.36655 35.10064 473 ft 22 kts 113°
2026-05-06 22:59 48.36591 35.10299 471 ft 27 kts 112°
2026-05-06 22:59 48.36491 35.10550 472 ft 30 kts 149°
2026-05-06 23:00 48.36297 35.10696 472 ft 33 kts 154°
2026-05-06 23:00 48.36088 35.10820 471 ft 29 kts 185°
2026-05-06 23:00 48.35870 35.10817 472 ft 33 kts 181°
2026-05-06 23:00 48.35727 35.10871 473 ft 10 kts 98°
2026-05-06 23:01 48.35730 35.10963 470 ft 12 kts 90°
2026-05-06 23:01 48.35731 35.11122 470 ft 19 kts 90°
2026-05-06 23:01 48.35732 35.11351 477 ft 25 kts 89°
2026-05-06 23:01 48.35731 35.11634 477 ft 29 kts 90°
2026-05-06 23:02 48.35745 35.11887 478 ft 15 kts 45°
2026-05-06 23:02 48.35729 35.11932 481 ft 4 kts 253°
2026-05-06 23:02 48.35731 35.11861 476 ft 14 kts 270°
2026-05-06 23:02 48.35730 35.11360 471 ft 80 kts 270°
2026-05-06 23:03 48.35730 35.10238 472 ft 132 kts 271°
2026-05-06 23:03 48.35722 35.08667 578 ft 161 kts 268°
2026-05-06 23:03 48.35709 35.06970 1068 ft 164 kts 268°
2026-05-06 23:03 48.35697 35.05226 1620 ft 168 kts 267°
2026-05-06 23:04 48.35696 35.03470 2205 ft 169 kts 268°
2026-05-06 23:04 48.35699 35.01628 2579 ft 184 kts 268°
2026-05-06 23:04 48.35701 34.99621 2932 ft 200 kts 268°
2026-05-06 23:04 48.35702 34.97437 3259 ft 219 kts 269°
2026-05-06 23:05 48.35705 34.95050 3692 ft 236 kts 270°
2026-05-06 23:05 48.35716 34.92491 4183 ft 254 kts 271°
2026-05-06 23:05 48.35732 34.89751 4740 ft 269 kts 271°
2026-05-06 23:05 48.35745 34.86944 5479 ft 275 kts 272°
2026-05-06 23:06 48.35761 34.84035 6235 ft 281 kts 272°
2026-05-06 23:06 48.35776 34.81061 6959 ft 287 kts 272°
2026-05-06 23:06 48.35788 34.78030 7694 ft 292 kts 272°
2026-05-06 23:06 48.35796 34.74952 8435 ft 297 kts 271°
2026-05-06 23:07 48.35804 34.71823 9170 ft 302 kts 271°
2026-05-06 23:07 48.35813 34.68649 9895 ft 306 kts 271°
2026-05-06 23:07 48.35821 34.65395 10419 ft 317 kts 271°
2026-05-06 23:07 48.35829 34.61993 10755 ft 334 kts 271°
2026-05-06 23:08 48.35834 34.58420 11073 ft 349 kts 271°
2026-05-06 23:08 48.35834 34.54722 11603 ft 356 kts 271°
2026-05-06 23:08 48.35831 34.50981 12257 ft 359 kts 271°
2026-05-06 23:08 48.35829 34.47208 12916 ft 362 kts 271°
2026-05-06 23:09 48.35827 34.43403 13592 ft 365 kts 271°
2026-05-06 23:09 48.35823 34.39571 14204 ft 368 kts 271°
2026-05-06 23:09 48.35818 34.35705 14786 ft 371 kts 271°
2026-05-06 23:09 48.35813 34.31811 15355 ft 374 kts 271°
2026-05-06 23:10 48.35834 34.27894 15910 ft 376 kts 275°
2026-05-06 23:10 48.36149 34.23989 16468 ft 378 kts 280°
2026-05-06 23:10 48.36520 34.20063 17021 ft 381 kts 280°
2026-05-06 23:10 48.36890 34.16109 17585 ft 384 kts 280°
2026-05-06 23:11 48.37262 34.12125 18146 ft 387 kts 280°
2026-05-06 23:11 48.37631 34.08101 18665 ft 390 kts 279°
2026-05-06 23:11 48.37999 34.04043 19163 ft 393 kts 279°
2026-05-06 23:11 48.38370 33.99953 19680 ft 396 kts 279°
2026-05-06 23:12 48.38743 33.95836 20175 ft 399 kts 280°
2026-05-06 23:12 48.39118 33.91688 20662 ft 402 kts 279°
2026-05-06 23:12 48.39496 33.87501 21144 ft 405 kts 279°
2026-05-06 23:12 48.39875 33.83285 21615 ft 408 kts 279°
2026-05-06 23:13 48.40255 33.79029 22077 ft 412 kts 279°
2026-05-06 23:13 48.40636 33.74744 22534 ft 415 kts 279°
2026-05-06 23:13 48.41018 33.70423 23019 ft 418 kts 279°
2026-05-06 23:13 48.41401 33.66072 23480 ft 421 kts 279°
2026-05-06 23:14 48.41784 33.61695 23886 ft 424 kts 279°
2026-05-06 23:14 48.42171 33.57281 24286 ft 425 kts 279°
2026-05-06 23:14 48.42558 33.52860 24693 ft 427 kts 279°
2026-05-06 23:14 48.42942 33.48419 25096 ft 428 kts 279°
2026-05-06 23:15 48.43323 33.43969 25483 ft 430 kts 279°
2026-05-06 23:15 48.43705 33.39498 25870 ft 431 kts 279°
2026-05-06 23:15 48.44089 33.35010 26255 ft 432 kts 278°
2026-05-06 23:15 48.44472 33.30516 26623 ft 434 kts 278°
2026-05-06 23:16 48.44853 33.25998 26987 ft 435 kts 278°
2026-05-06 23:16 48.45233 33.21475 27342 ft 436 kts 278°
2026-05-06 23:16 48.45616 33.16931 27697 ft 438 kts 278°
2026-05-06 23:16 48.45998 33.12370 28048 ft 439 kts 278°
2026-05-06 23:17 48.46373 33.07859 28389 ft 441 kts 278°
2026-05-06 23:17 48.46749 33.03259 28733 ft 442 kts 277°
2026-05-06 23:17 48.47128 32.98657 29065 ft 444 kts 278°
2026-05-06 23:17 48.47604 32.94061 29391 ft 445 kts 281°
2026-05-06 23:18 48.48203 32.89479 29714 ft 446 kts 283°
2026-05-06 23:18 48.48881 32.84899 30041 ft 448 kts 283°
2026-05-06 23:18 48.49587 32.80318 30320 ft 449 kts 284°
2026-05-06 23:18 48.50289 32.75727 30642 ft 449 kts 283°
2026-05-06 23:19 48.50965 32.71134 31026 ft 448 kts 283°
2026-05-06 23:19 48.51611 32.66545 31428 ft 446 kts 282°
2026-05-06 23:19 48.52232 32.61972 31820 ft 445 kts 282°
2026-05-06 23:19 48.52841 32.57410 32210 ft 443 kts 282°
2026-05-06 23:20 48.53444 32.52844 32608 ft 442 kts 282°
2026-05-06 23:20 48.54045 32.48306 32988 ft 441 kts 282°
2026-05-06 23:20 48.54647 32.43773 33372 ft 440 kts 282°
2026-05-06 23:20 48.55247 32.39258 33763 ft 438 kts 282°
2026-05-06 23:21 48.55846 32.34750 34137 ft 437 kts 282°
2026-05-06 23:21 48.56441 32.30265 34440 ft 436 kts 282°
2026-05-06 23:21 48.57035 32.25782 34711 ft 435 kts 282°
2026-05-06 23:21 48.57629 32.21296 34964 ft 435 kts 282°
2026-05-06 23:22 48.58218 32.16816 35210 ft 435 kts 282°
2026-05-06 23:22 48.58803 32.12336 35448 ft 435 kts 282°
2026-05-06 23:22 48.59384 32.07846 35682 ft 435 kts 282°
2026-05-06 23:22 48.59965 32.03363 35905 ft 435 kts 282°
2026-05-06 23:23 48.60548 31.98873 36036 ft 437 kts 282°
2026-05-06 23:23 48.61718 31.89843 36056 ft 437 kts 282°
2026-05-06 23:24 48.62888 31.80803 36056 ft 439 kts 282°
2026-05-06 23:24 48.64042 31.71760 36049 ft 438 kts 282°
2026-05-06 23:25 48.65180 31.62699 36052 ft 438 kts 281°
2026-05-06 23:25 48.66305 31.53698 36051 ft 438 kts 281°
2026-05-06 23:26 48.67433 31.44640 36046 ft 438 kts 281°
2026-05-06 23:26 48.68558 31.35562 36045 ft 438 kts 281°
2026-05-06 23:27 48.69681 31.26499 36045 ft 438 kts 281°
2026-05-06 23:27 48.70794 31.17430 36047 ft 438 kts 281°
2026-05-06 23:28 48.71894 31.08355 36055 ft 438 kts 281°
2026-05-06 23:28 48.72987 30.99278 36052 ft 438 kts 281°
2026-05-06 23:29 48.74076 30.90198 36059 ft 438 kts 281°
2026-05-06 23:29 48.75152 30.81134 36052 ft 437 kts 281°
2026-05-06 23:30 48.76221 30.72063 36050 ft 437 kts 281°
2026-05-06 23:30 48.77287 30.62997 36045 ft 437 kts 281°
2026-05-06 23:31 48.78345 30.53926 36045 ft 437 kts 281°
2026-05-06 23:31 48.79393 30.44852 36041 ft 436 kts 281°
2026-05-06 23:32 48.80435 30.35783 36048 ft 436 kts 281°
2026-05-06 23:32 48.81467 30.26721 36050 ft 436 kts 281°
2026-05-06 23:33 48.82487 30.17715 36048 ft 436 kts 281°
2026-05-06 23:33 48.83504 30.08596 36049 ft 435 kts 281°
2026-05-06 23:34 48.84512 29.99530 36048 ft 435 kts 281°
2026-05-06 23:34 48.85504 29.90535 36046 ft 435 kts 280°
2026-05-06 23:35 48.86501 29.81464 36048 ft 435 kts 281°
2026-05-06 23:35 48.87498 29.72417 36047 ft 434 kts 280°
2026-05-06 23:36 48.88472 29.63365 36046 ft 434 kts 280°
2026-05-06 23:36 48.89446 29.54303 36042 ft 434 kts 280°
2026-05-06 23:37 48.90410 29.45259 36046 ft 434 kts 280°
2026-05-06 23:37 48.91204 29.37740 36043 ft 433 kts 280°
2026-05-06 23:38 48.92153 29.28709 36043 ft 433 kts 280°
2026-05-06 23:38 48.93089 29.19675 36040 ft 432 kts 280°
2026-05-06 23:39 48.94022 29.10658 36040 ft 432 kts 280°
2026-05-06 23:39 48.94955 29.01638 36038 ft 431 kts 280°
2026-05-06 23:40 48.95868 28.92633 36041 ft 431 kts 279°
2026-05-06 23:40 48.96870 28.83664 36033 ft 429 kts 287°
2026-05-06 23:41 48.98514 28.74934 36031 ft 429 kts 287°
2026-05-06 23:41 49.00144 28.66210 36034 ft 428 kts 287°
2026-05-06 23:42 49.01750 28.57551 36032 ft 428 kts 287°
2026-05-06 23:42 49.03355 28.48836 36030 ft 427 kts 287°
2026-05-06 23:43 49.04960 28.40117 36034 ft 427 kts 286°
2026-05-06 23:43 49.06555 28.31398 36034 ft 427 kts 286°
2026-05-06 23:44 49.08142 28.22675 36034 ft 426 kts 286°
2026-05-06 23:44 49.09718 28.13963 36030 ft 426 kts 286°
2026-05-06 23:45 49.11290 28.05259 36023 ft 425 kts 286°
2026-05-06 23:45 49.12849 27.96546 36015 ft 425 kts 286°
2026-05-06 23:46 49.14408 27.87839 36013 ft 425 kts 286°
2026-05-06 23:46 49.15960 27.79118 36012 ft 425 kts 285°
2026-05-06 23:47 49.17506 27.70417 36011 ft 424 kts 285°
2026-05-06 23:47 49.19041 27.61721 36007 ft 424 kts 285°
2026-05-06 23:48 49.20558 27.53045 36005 ft 421 kts 285°
2026-05-06 23:48 49.22065 27.44400 36010 ft 420 kts 285°
2026-05-06 23:49 49.23564 27.35766 36001 ft 420 kts 285°
2026-05-06 23:49 49.25050 27.27136 35999 ft 419 kts 285°
2026-05-06 23:50 49.26522 27.18565 36001 ft 419 kts 285°
2026-05-06 23:50 49.28726 27.05637 36003 ft 418 kts 285°
2026-05-06 23:51 49.30188 26.97022 35997 ft 417 kts 285°
2026-05-06 23:51 49.31642 26.88420 35993 ft 417 kts 285°
2026-05-06 23:52 49.33082 26.79824 35992 ft 416 kts 285°
2026-05-06 23:52 49.34524 26.71235 35985 ft 416 kts 285°
2026-05-06 23:53 49.35953 26.62636 36000 ft 415 kts 285°
2026-05-06 23:53 49.37373 26.54044 35733 ft 415 kts 285°
2026-05-06 23:54 49.38077 26.49763 35476 ft 412 kts 285°
2026-05-06 23:54 49.38777 26.45515 35231 ft 410 kts 285°
2026-05-06 23:54 49.39475 26.41276 34981 ft 408 kts 285°
2026-05-06 23:54 49.40164 26.37063 34735 ft 406 kts 285°
2026-05-06 23:55 49.40846 26.32865 34492 ft 404 kts 285°
2026-05-06 23:55 49.41522 26.28691 34251 ft 402 kts 285°
2026-05-06 23:55 49.42195 26.24542 34000 ft 398 kts 285°
2026-05-06 23:55 49.42858 26.20441 33538 ft 394 kts 285°
2026-05-06 23:56 49.43510 26.16378 33087 ft 390 kts 285°
2026-05-06 23:56 49.44154 26.12362 32640 ft 386 kts 285°
2026-05-06 23:56 49.44795 26.08378 32190 ft 382 kts 284°
2026-05-06 23:56 49.45430 26.04427 31752 ft 380 kts 284°
2026-05-06 23:57 49.46059 26.00497 31319 ft 377 kts 284°
2026-05-06 23:57 49.46683 25.96595 30899 ft 375 kts 284°
2026-05-06 23:57 49.47302 25.92705 30467 ft 374 kts 283°
2026-05-06 23:57 49.47915 25.88838 30054 ft 372 kts 283°
2026-05-06 23:58 49.48528 25.84974 29608 ft 370 kts 283°
2026-05-06 23:58 49.49136 25.81143 29206 ft 367 kts 283°
2026-05-06 23:58 49.49737 25.77337 28815 ft 365 kts 283°
2026-05-06 23:58 49.50328 25.73563 28437 ft 361 kts 283°
2026-05-06 23:59 49.50912 25.69819 28058 ft 358 kts 283°
2026-05-06 23:59 49.51492 25.66106 27680 ft 355 kts 283°
2026-05-06 23:59 49.52065 25.62427 27296 ft 352 kts 283°
2026-05-06 23:59 49.52633 25.58777 26921 ft 349 kts 282°
2026-05-07 00:00 49.53195 25.55167 26540 ft 345 kts 282°
2026-05-07 00:00 49.53753 25.51590 26168 ft 342 kts 282°
2026-05-07 00:00 49.54305 25.48046 25791 ft 339 kts 282°
2026-05-07 00:00 49.54850 25.44527 25401 ft 337 kts 282°
2026-05-07 00:01 49.55386 25.41034 25022 ft 334 kts 282°
2026-05-07 00:01 49.55918 25.37561 24628 ft 332 kts 282°
2026-05-07 00:01 49.56448 25.34099 24240 ft 331 kts 282°
2026-05-07 00:01 49.56975 25.30658 23843 ft 330 kts 282°
2026-05-07 00:02 49.57501 25.27228 23435 ft 329 kts 281°
2026-05-07 00:02 49.58023 25.23800 23001 ft 327 kts 281°
2026-05-07 00:02 49.58535 25.20409 22613 ft 324 kts 281°
2026-05-07 00:02 49.59044 25.17044 22217 ft 321 kts 281°
2026-05-07 00:03 49.59542 25.13744 21834 ft 319 kts 281°
2026-05-07 00:03 49.60269 25.10481 21436 ft 319 kts 294°
2026-05-07 00:03 49.61461 25.07598 21048 ft 320 kts 308°
2026-05-07 00:03 49.63051 25.05245 20650 ft 322 kts 321°
2026-05-07 00:04 49.64971 25.03448 20246 ft 324 kts 329°
2026-05-07 00:04 49.66945 25.01790 19844 ft 323 kts 328°
2026-05-07 00:04 49.68918 25.00113 19433 ft 323 kts 328°
2026-05-07 00:04 49.70885 24.98433 19028 ft 323 kts 328°
2026-05-07 00:05 49.72848 24.96756 18621 ft 323 kts 328°
2026-05-07 00:05 49.74818 24.95076 18209 ft 323 kts 328°
2026-05-07 00:05 49.76792 24.93389 17767 ft 323 kts 328°
2026-05-07 00:05 49.78622 24.91431 17377 ft 317 kts 315°
2026-05-07 00:06 49.80080 24.88913 16991 ft 312 kts 301°
2026-05-07 00:06 49.81114 24.86006 16622 ft 306 kts 289°
2026-05-07 00:06 49.81751 24.82890 16262 ft 302 kts 283°
2026-05-07 00:06 49.82319 24.79769 15903 ft 301 kts 283°
2026-05-07 00:07 49.82886 24.76662 15544 ft 299 kts 282°
2026-05-07 00:07 49.83451 24.73564 15196 ft 298 kts 282°
2026-05-07 00:07 49.84013 24.70488 14828 ft 296 kts 282°
2026-05-07 00:07 49.84575 24.67422 14482 ft 295 kts 282°
2026-05-07 00:08 49.85135 24.64366 14116 ft 294 kts 282°
2026-05-07 00:08 49.85691 24.61320 13769 ft 293 kts 281°
2026-05-07 00:08 49.86241 24.58285 13392 ft 292 kts 281°
2026-05-07 00:08 49.86786 24.55267 13037 ft 290 kts 281°
2026-05-07 00:09 49.87328 24.52273 12685 ft 287 kts 281°
2026-05-07 00:09 49.87864 24.49301 12349 ft 285 kts 281°
2026-05-07 00:09 49.88395 24.46350 12010 ft 283 kts 281°
2026-05-07 00:09 49.88921 24.43419 11672 ft 281 kts 281°
2026-05-07 00:10 49.89443 24.40509 11336 ft 279 kts 282°
2026-05-07 00:10 49.89960 24.37617 11009 ft 277 kts 281°
2026-05-07 00:10 49.90472 24.34744 10667 ft 276 kts 282°
2026-05-07 00:10 49.90981 24.31884 10342 ft 274 kts 282°
2026-05-07 00:11 49.91486 24.29043 10012 ft 273 kts 282°
2026-05-07 00:11 49.91986 24.26223 9847 ft 268 kts 282°
2026-05-07 00:11 49.92470 24.23492 9721 ft 258 kts 281°
2026-05-07 00:11 49.92938 24.20857 9575 ft 249 kts 281°
2026-05-07 00:12 49.93394 24.18294 9304 ft 246 kts 281°
2026-05-07 00:12 49.93846 24.15742 9017 ft 243 kts 281°
2026-05-07 00:12 49.94293 24.13210 8672 ft 243 kts 281°
2026-05-07 00:12 49.94738 24.10695 8403 ft 241 kts 281°
2026-05-07 00:13 49.95180 24.08187 8098 ft 239 kts 281°
2026-05-07 00:13 49.95615 24.05718 7802 ft 235 kts 281°
2026-05-07 00:13 49.96043 24.03282 7353 ft 233 kts 281°
2026-05-07 00:13 49.96463 24.00882 7004 ft 227 kts 281°
2026-05-07 00:14 49.96876 23.98528 6681 ft 225 kts 281°
2026-05-07 00:14 49.97283 23.96195 6373 ft 223 kts 281°
2026-05-07 00:14 49.97687 23.93870 6052 ft 222 kts 281°
2026-05-07 00:14 49.98089 23.91559 5739 ft 221 kts 280°
2026-05-07 00:15 49.98323 23.89233 5442 ft 215 kts 265°
2026-05-07 00:15 49.98110 23.86959 5146 ft 212 kts 250°
2026-05-07 00:15 49.97498 23.84907 4832 ft 209 kts 236°
2026-05-07 00:15 49.96550 23.83197 4514 ft 209 kts 226°
2026-05-07 00:16 49.95538 23.81613 4214 ft 210 kts 227°
2026-05-07 00:16 49.94517 23.80003 3893 ft 208 kts 225°
2026-05-07 00:16 49.93270 23.78917 3591 ft 213 kts 191°
2026-05-07 00:16 49.91805 23.79426 3264 ft 229 kts 153°
2026-05-07 00:17 49.90531 23.81021 2912 ft 235 kts 143°
2026-05-07 00:17 49.89377 23.82791 2579 ft 237 kts 140°
2026-05-07 00:17 49.88273 23.84588 2495 ft 218 kts 138°
2026-05-07 00:17 49.87306 23.86221 2491 ft 196 kts 141°
2026-05-07 00:18 49.86395 23.87653 2337 ft 178 kts 142°
2026-05-07 00:18 49.85590 23.88885 2154 ft 149 kts 143°
2026-05-07 00:18 49.84881 23.89954 1977 ft 140 kts 143°
2026-05-07 00:18 49.84178 23.91001 1781 ft 140 kts 142°
2026-05-07 00:19 49.83481 23.92054 1584 ft 140 kts 140°
2026-05-07 00:19 49.82785 23.93113 1404 ft 140 kts 138°
2026-05-07 00:19 49.82088 23.94166 1211 ft 140 kts 137°
2026-05-07 00:19 49.81396 23.95205 1075 ft 134 kts 137°
2026-05-07 00:20 49.80993 23.95810 1065 ft 100 kts 136°
2026-05-07 00:20 49.80690 23.96267 1065 ft 41 kts 136°
2026-05-07 00:20 49.80594 23.96446 1066 ft 19 kts 99°
2026-05-07 00:20 49.80590 23.96661 1066 ft 20 kts 96°
2026-05-07 00:21 49.80500 23.96754 1066 ft 16 kts 200°
2026-05-07 00:21 49.80464 23.96614 1065 ft 16 kts 298°
2026-05-07 00:21 49.80542 23.96488 1066 ft 17 kts 317°
2026-05-07 00:21 49.80626 23.96358 1066 ft 18 kts 315°
2026-05-07 00:22 49.80724 23.96213 1065 ft 20 kts 314°
2026-05-07 00:22 49.80835 23.96053 1064 ft 23 kts 323°
2026-05-07 00:22 49.80980 23.96034 1067 ft 21 kts 359°
2026-05-07 00:22 49.81113 23.95974 1067 ft 16 kts 315°
2026-05-07 00:23 49.81196 23.95848 1066 ft 18 kts 315°
2026-05-07 00:23 49.81268 23.95760 1067 ft 7 kts
2026-05-07 00:23 49.81304 23.95812 1066 ft 8 kts 45°
2026-05-07 00:23 49.81319 23.95836 1066 ft 3 kts 45°
2026-05-07 00:24 49.81320 23.95837 1066 ft 0 kts 45°